Location: ??????
(55.2000°N, 38.3000°E)
Time: 07:27:05
(UTC+00:00)

Cosmos 2151 Rocket - Pass Details

Date: 15 November 2025
Orbit: 611 x 636 km, 82.5° (Epoch: 14 December)

Event Time Altitude Azimuth Distance (km) Brightness Sun altitude
Exits shadow 02:42:52 - 348° (NNW) 2,921 6.8 -19.1°
Reaches altitude 10° 02:45:03 10° 350° (N) 2,034 6.0 -18.8°
Maximum altitude 02:49:35 80° 77° (ENE) 649 3.7 -18.2°
Drops below altitude 10° 02:54:02 10° 166° (SSE) 2,006 6.4 -17.6°
Sets 02:56:15 0° 167° (SSE) 2,905 7.3 -17.3°
